Regional Weather Roundup
Issued by NWS

Home | Current Version | Previous Version | Graphics & Text | Print | Product List | Glossary Off
Versions: 1 2 3 4 5 6 7 8 9 10 11 12 13 14 15 16 17 18 19 20 21 22 23 24 25 26 27 28 29 30 31 32 33 34 35 36 37 38 39 40 41 42 43 44 45 46 47 48 49 50

101
ASUS43 KTOP 072159
RWRKS

WEATHER ROUNDUP FOR KANSAS
NATIONAL WEATHER SERVICE GOODLAND KS
400 PM CST SUN FEB 07 2016

NOTE:  "FAIR" INDICATES FEW OR NO CLOUDS BELOW 12,000 FEET WITH NO
SIGNIFICANT WEATHER AND/OR OBSTRUCTIONS TO VISIBILITY.

KSZ001>006-013>018-027>032-041>047-072300-
NORTHWEST KANSAS

CITY           SKY/WX    TMP DP  RH WIND       PRES   REMARKS
GOODLAND       CLOUDY    36  19  50 NW22G31   30.27S WCI  25
HAYS           PTSUNNY   43  21  42 NW18G29   30.20S
HILL CITY      MOSUNNY   40  22  48 NW25G37   30.20F WCI  29
RUSSELL        PTSUNNY   44  27  51 NW23      30.17F
$$

KSZ061>065-074>080-084>089-072300-
SOUTHWEST KANSAS

CITY           SKY/WX    TMP DP  RH WIND       PRES   REMARKS
DODGE CITY     MOSUNNY   46  11  24 N18G33    30.25S
ELKHART          N/A     46  18  32 N16         N/A
GARDEN CITY    SUNNY     44  13  28 N29G37    30.27S
GREAT BEND     CLOUDY    45  25  45 NW21G31   30.21S
LIBERAL        SUNNY     48  18  29 N23G33    30.27S
$$

KSZ066>073-081>083-090>101-072300-
SOUTHEAST KANSAS

CITY           SKY/WX    TMP DP  RH WIND       PRES   REMARKS
CHANUTE        CLOUDY    54  14  20 NW24G37   30.08S
COFFEYVILLE    PTSUNNY   56  22  26 NW22G38   30.10S
HUTCHINSON     MOSUNNY   51  22  31 W20G26    30.16F
MEDICINE LODGE   N/A     53  21  28 N24G35    30.20R
NEWTON         CLOUDY    50  10  20 NW31G40   30.14F
PARSONS        MOSUNNY   57  22  25 NW18G25   30.09F
WICHITA INTL   MOSUNNY   52  19  27 NW22G32   30.16S
WICHITA JABRA  PTSUNNY   52  19  27 NW18G32   30.14F
WINFIELD       MOSUNNY   55  21  26 N26G33    30.15S
$$

KSZ007>012-019>026-033>040-048>060-102>105-072300-
NORTHEAST KANSAS

CITY           SKY/WX    TMP DP  RH WIND       PRES   REMARKS
CONCORDIA      SUNNY     46  26  45 W26G38    30.08F
EMPORIA        MOSUNNY   50  14  23 NW24G39   30.08S
LAWRENCE       PTSUNNY   50  16  25 NW25G39   30.03F
MANHATTAN      MOSUNNY   52  14  22 NW18G29   30.09F
OLATHE IND     MOSUNNY   49  21  33 NW16G33   30.02S
OLATHE EXE     MOSUNNY   50  21  32 NW16G29   30.01S
SALINA         SUNNY     52  16  24 NW32G41   30.12F
TOPEKA BILLARD MOSUNNY   52  10  18 W25G40    30.04S
TOPEKA FORBES  MOSUNNY   51  12  21 NW28G43   30.04S
$$




USA.gov is the U.S. government's official web portal to all federal, state and local government web resources and services.